Flag for Canada Weather past 2 weeks in Hay River, Northwest Territories, Canada

Now
-36 °F

Passing clouds.


Feels Like: -50 °F
Forecast: -29 / -15 °F
Wind: 3 mph from East

Location: Hay River

Current Time: Dec 25, 2014 at 7:21:39 PM

Latest Report: Dec 25, 2014 at 6:00 PM


Visibility: 15 mi

Pressure: 30.33 "Hg

Humidity: 73%

Dew point: -42 °F

Location of Hay RiverLocation

Historic Weather in Hay River — Graph

°F

Hay River temperature yesterday

Maximum temperature yesterday: -15 °F (at 12:00 AM)
Minimum temperature yesterday: -33 °F (at 11:00 PM)
Average temperature yesterday: -21 °F

Past Weeks' High & Low Weather Summary

 TemperatureHumidityPressure
High23 °F (Dec 15, 3:00 PM)93% (Dec 15, 10:00 AM)30.45 "Hg (Dec 15, 10:00 AM)
Low-40 °F (Dec 25, 9:00 AM)65% (Dec 25, 9:00 AM)29.55 "Hg (Dec 20, 3:00 AM)
Average4 °F83%29.88 "Hg
* Reported Dec 10 6:00 PM — Dec 25 6:00 PM, Hay River, Weather by CustomWeather, © 2014

Note: Actual official high and low records may vary slightly from our data, if they occured in-between our weather recording intervals... More about our weather records

Advertising

Hay River weather history for previous 24 hours

 ConditionsComfort  
Time TempWeatherWind HumidityBarometerVisibility
6:00 PM
Dec 25
-36 °FPassing clouds.3 mph73%30.33 "Hg15 mi
5:00 PM-35 °FPassing clouds.5 mph66%30.33 "Hg15 mi
4:00 PM-35 °FPassing clouds.2 mph73%30.32 "Hg15 mi
3:00 PM-33 °FScattered clouds.3 mph66%30.31 "Hg15 mi
2:00 PM-31 °FScattered clouds.2 mph67%30.30 "Hg15 mi
1:00 PM-31 °FPassing clouds.2 mph67%30.29 "Hg15 mi
12:00 PM-35 °FFog.5 mph66%30.29 "Hg15 mi
11:00 AM-36 °FFog.5 mph66%30.29 "Hg15 mi
10:00 AM-38 °FFog.No wind65%30.29 "Hg15 mi
9:00 AM-40 °FPassing clouds.No wind65%30.28 "Hg15 mi
8:00 AM-36 °FSnow flurries. Clear.No wind66%30.25 "Hg15 mi
7:00 AM-36 °FSnow flurries. Clear.No wind66%30.24 "Hg15 mi
6:00 AM-36 °FSnow flurries. Clear.No wind73%30.24 "Hg15 mi
5:00 AM-35 °FClear.No wind66%30.25 "Hg15 mi
4:00 AM-35 °FClear.No wind66%30.23 "Hg15 mi
3:00 AM-33 °FClear.2 mph66%30.23 "Hg15 mi
2:00 AM-35 °FClear.2 mph73%30.22 "Hg15 mi
1:00 AM-33 °FClear.No wind66%30.22 "Hg15 mi
12:00 AM-31 °FClear.No wind67%30.21 "Hg15 mi
11:00 PM
Dec 24
-33 °FClear.2 mph66%30.21 "Hg15 mi
10:00 PM-29 °FClear.No wind74%30.20 "Hg15 mi
9:00 PM-26 °FClear.5 mph67%30.18 "Hg15 mi
8:00 PM-26 °FClear.3 mph67%30.19 "Hg15 mi
7:00 PM-26 °FClear.6 mph67%30.18 "Hg15 mi
Weather by CustomWeather, © 2014

See weather overviewHow to use our weather pages